Location: ??????
(55.7522°N, 37.6156°E)
Time: 17:12:16
(UTC+00:00)

USA 81 - Pass Details

Date: 14 June 2025
Orbit: 782 x 786 km, 85.0° (Epoch: 12 July)

Event Time Altitude Azimuth Distance (km) Brightness Sun altitude
Exits shadow 23:00:02 - 173° (S) 2,584 6.2 -8.6°
Reaches altitude 10° 23:00:39 10° 172° (S) 2,344 6.0 -8.6°
Maximum altitude 23:05:51 63° 92° (E) 877 4.4 -8.4°
Drops below altitude 10° 23:11:04 10° 12° (NNE) 2,358 8.1 -8.1°
Sets 23:13:27 0° 10° (N) 3,291 9.2 -7.9°
